Track CHUANG XIN 1-03 now! 10-day predictions CHUANG XIN 1-03 is classified as:
1 37930U 11068A 25199.89126542 .00000053 00000-0 37667-4 0 9992 2 37930 98.7131 212.0985 0015309 18.0964 100.4544 14.30431660713003